Badlands National Park, SD

10:20 PM MDT on September 22, 2014 (GMT -0600)
Philip | Change Station
CLOSE
Current Station
Airport
Location: Philip,
Elevation: 2208 ft
Nearby Weather Stations

Elev 2208 ft 44.05 °N, 101.60 °W | Updated 25 minutes ago

Overcast
Overcast
60 °F
Feels Like 60 °F
N
16
Wind Variable Wind from South

Today
High -- | Low -- °F
--% Chance of Precip.
Yesterday
High -- | Low -- °F
Precip. -- in
6:35 AM 6:45 PM
Waning Crescent, 1% visible
Pressure 29.92 in
Visibility 8.0 miles
Clouds Overcast 10000 ft
Dew Point 55 °F
Humidity 83%
Rainfall 0.03 in
Snow Depth 0 in
UV 0 out of 12
Pollen 5.60 out of 12
Air Quality Not available.
Flu Activity Not available.
METAR KPHP 230355Z AUTO 18014KT 8SM RA OVC100 16/13 A2996 RMK AO2 RAB06 SLP132 P0003 T01560128 $

More Conditions Fewer Conditions

Pressure 29.92 in
Visibility 8.0 miles
Clouds Overcast 10000 ft
Dew Point 55 °F
Humidity 83%
Rainfall 0.03 in
Snow Depth 0 in
UV 0 out of 12
Pollen 5.60 out of 12
Air Quality Not available.
Flu Activity Not available.
METAR KPHP 230355Z AUTO 18014KT 8SM RA OVC100 16/13 A2996 RMK AO2 RAB06 SLP132 P0003 T01560128 $

More Conditions Fewer Conditions

10-Day Weather Forecast

Almanac

Astronomy

Sep. 22, 2014 Rise Set
Actual Time 6:35 AM MDT 6:45 PM MDT
Civil Twilight 6:06 AM MDT 7:13 PM MDT
Nautical Twilight 5:32 AM MDT 7:47 PM MDT
Astronomical Twilight 4:58 AM MDT 8:21 PM MDT
Moon 5:03 AM MDT (9/22) 5:54 PM MDT (9/22)
Length of Visible Light 13h 07m
Length of Day
12h 10m
Tomorrow will be 2m 59s shorter.
Waning Crescent, 1% of the Moon is Illuminated
Sep 23
Waning Crescent
Sep 24
New
Oct 1
First Quarter
Oct 8
Full
Oct 15
Last Quarter

Today's Extremes

State Highs State Lows

Community

WunderPhotos

Upload Photos

1,755,611 photos uploaded!

Nearby

Snow Depth

Station Depth Elevation
Blind Park 0 in 6890 ft

Earthquake Activity

City Distance Mag. Time & Date
No recent earthquake activity has been reported nearby.
Minimum magnitude displayed is 2.5.

Coastal Water Temperatures

Place Temperature
No Stations Reporting

Nearby Weather Stations